Location: Demmingen
(48.6757°N, 10.4375°E)
Time: 23:23:55
(UTC+00:00)

Meteor 1-24 Rocket - Pass Details

Date: 23 May 2024
Orbit: 789 x 927 km, 81.3° (Epoch: 14 June)

Event Time Altitude Azimuth Distance (km) Brightness Sun altitude
Exits shadow 02:02:47 10° 190° (S) 2,646 5.8 -11.2°
Reaches altitude 10° 02:02:51 10° 190° (S) 2,622 5.7 -11.2°
Maximum altitude 02:08:53 90° 263° (W) 933 3.9 -10.6°
Drops below altitude 10° 02:14:55 10° 12° (NNE) 2,617 7.3 -9.9°
Sets 02:17:23 0° 12° (NNE) 3,550 8.1 -9.6°
